QPF
0.00 0.00 0.02 0.05 0.02 0.02 0.00 0.00 0.00 0.00 0.00 0.00 0.00 0.00 0.00 0.00 0.00 0.00 0.02 0.02 0.00 0.00 0.00 0.00 0.00 0.00 0.00 0.00 0.02 0.02 0.01 0.04 0.04 0.00 0.01 0.00 0.00 0.01 0.01 0.01 0.00 0.00 0.00 0.00 0.00 0.00 0.01 0.00 0.00
0.00 0.03 0.03 0.03 0.00 0.00 0.00 0.00 0.00 0.00 0.00 0.00 0.00 0.00 0.00 0.00 0.00 0.00 0.01 0.00 0.00 0.00 0.00 0.00 0.00 0.00 0.00 0.00 0.01 0.01 0.03 0.04 0.01 0.00 0.01 0.01 0.02 0.03 0.00 0.00 0.00 0.00 0.00 0.00 0.00 0.00 0.00 0.00 0.00
0.00 0.04 0.01 0.04 0.00 0.00 0.00 0.00 0.00 0.00 0.00 0.00 0.00 0.00 0.00 0.00 0.00 0.00 0.02 0.03 0.02 0.00 0.00 0.00 0.00 0.00 0.00 0.00 0.00 0.00 0.01 0.01 0.00 0.01 0.03 0.03 0.05 0.03 0.02 0.00 0.00 0.00 0.00 0.00 0.00 0.00 0.00 0.00 0.00
0.00 0.00 0.00 0.00 0.00 0.00 0.00 0.00 0.00 0.00 0.00 0.00 0.00 0.00 0.00 0.00 0.00 0.01 0.04 0.06 0.00 0.00 0.00 0.00 0.00 0.00 0.00 0.00 0.00 0.00 0.00 0.01 0.01 0.01 0.02 0.02 0.01 0.00 0.00 0.00 0.00 0.00 0.00 0.00 0.00 0.00 0.00 0.00 0.00
0.00 0.00 0.00 0.00 0.00 0.00 0.00 0.00 0.00 0.00 0.00 0.00 0.00 0.00 0.00 0.01 0.00 0.00 0.01 0.00 0.00 0.00 0.00 0.00 0.00 0.00 0.00 0.00 0.00 0.00 0.01 0.01 0.01 0.01 0.00 0.01 0.01 0.00 0.00 0.00 0.01 0.01 0.00 0.00 0.00 0.00 0.00 0.00 0.00
0.00 0.00 0.05 0.01 0.00 0.00 0.00 0.00 0.00 0.00 0.00 0.00 0.00 0.00 0.00 0.00 0.00 0.00 0.00 0.00 0.00 0.00 0.00 0.00 0.00 0.00 0.00 0.00 0.00 0.00 0.01 0.01 0.00 0.01 0.01 0.01 0.02 0.02 0.01 0.01 0.00 0.00 0.00 0.00 0.00 0.00 0.00 0.00 0.00
0.00 0.01 0.06 0.01 0.00 0.00 0.00 0.00 0.00 0.00 0.00 0.00 0.00 0.00 0.00 0.00 0.01 0.00 0.01 0.00 0.00 0.00 0.00 0.00 0.00 0.00 0.00 0.00 0.01 0.01 0.01 0.01 0.01 0.02 0.02 0.06 0.02 0.00 0.00 0.00 0.00 0.00 0.00 0.00 0.00 0.00 0.00 0.00 0.00
0.01 0.05 0.08 0.02 0.00 0.00 0.00 0.00 0.00 0.00 0.00 0.00 0.00 0.00 0.00 0.00 0.01 0.00 0.00 0.00 0.00 0.00 0.00 0.00 0.00 0.00 0.00 0.00 0.01 0.00 0.00 0.00 0.00 0.02 0.02 0.05 0.01 0.00 0.00 0.00 0.00 0.00 0.00 0.00 0.00 0.00 0.00 0.00 0.00
0.11 0.09 0.11 0.05 0.00 0.00 0.00 0.01 0.00 0.00 0.00 0.00 0.00 0.00 0.00 0.00 0.00 0.00 0.00 0.01 0.08 0.01 0.00 0.00 0.00 0.00 0.00 0.00 0.00 0.03 0.04 0.05 0.03 0.01 0.03 0.07 0.03 0.04 0.02 0.02 0.01 0.00 0.00 0.02 0.00 0.00 0.00 0.00 0.00
0.15 0.71 0.39 0.06 0.01 0.00 0.00 0.01 0.00 0.00 0.00 0.00 0.00 0.00 0.00 0.00 0.00 0.00 0.00 0.00 0.06 0.01 0.00 0.00 0.00 0.00 0.00 0.00 0.01 0.02 0.03 0.04 0.02 0.01 0.01 0.00 0.04 0.04 0.05 0.08 0.03 0.00 0.00 0.00 0.00 0.00 0.00 0.00 0.00
0.16 0.31 0.18 0.05 0.01 0.00 0.00 0.00 0.00 0.00 0.00 0.00 0.00 0.00 0.00 0.00 0.00 0.00 0.00 0.00 0.01 0.00 0.00 0.00 0.00 0.00 0.00 0.00 0.00 0.00 0.00 0.00 0.00 0.02 0.01 0.00 0.02 0.00 0.02 0.01 0.00 0.00 0.00 0.00 0.00 0.00 0.00 0.00 0.00
0.13 0.15 0.07 0.03 0.03 0.01 0.00 0.00 0.00 0.01 0.01 0.00 0.00 0.00 0.00 0.00 0.00 0.00 0.00 0.00 0.00 0.00 0.00 0.00 0.00 0.00 0.00 0.00 0.00 0.00 0.01 0.01 0.01 0.07 0.02 0.02 0.00 0.00 0.00 0.00 0.00 0.00 0.00 0.00 0.01 0.00 0.00 0.00 0.00
0.07 0.15 0.23 0.16 0.04 0.08 0.07 0.00 0.00 0.00 0.01 0.00 0.00 0.00 0.00 0.00 0.00 0.00 0.00 0.00 0.00 0.00 0.00 0.00 0.00 0.00 0.00 0.04 0.02 0.05 0.02 0.00 0.01 0.01 0.05 0.02 0.00 0.00 0.00 0.00 0.01 0.00 0.00 0.01 0.00 0.00 0.00 0.00 0.00
0.00 0.08 0.30 0.60 0.21 0.24 0.08 0.03 0.01 0.01 0.00 0.00 0.00 0.00 0.00 0.00 0.00 0.00 0.00 0.00 0.00 0.00 0.00 0.00 0.00 0.00 0.00 0.01 0.01 0.02 0.02 0.00 0.00 0.01 0.04 0.01 0.01 0.00 0.00 0.00 0.00 0.01 0.01 0.00 0.00 0.00 0.00 0.00 0.00
0.00 0.19 0.38 0.53 0.71 0.66 0.20 0.09 0.01 0.00 0.01 0.00 0.00 0.00 0.00 0.00 0.00 0.00 0.00 0.00 0.00 0.00 0.00 0.00 0.00 0.00 0.00 0.00 0.04 0.01 0.01 0.00 0.02 0.02 0.06 0.03 0.00 0.00 0.00 0.00 0.02 0.05 0.04 0.02 0.01 0.01 0.00 0.00 0.00
0.02 0.14 0.23 0.28 0.38 0.83 0.26 0.09 0.00 0.00 0.00 0.00 0.00 0.00 0.00 0.00 0.00 0.00 0.00 0.00 0.00 0.00 0.00 0.00 0.00 0.00 0.00 0.00 0.00 0.00 0.00 0.00 0.00 0.01 0.01 0.01 0.00 0.01 0.01 0.03 0.11 0.23 0.67 0.09 0.05 0.02 0.00 0.00 0.00
0.03 0.12 0.15 0.60 0.56 1.09 0.36 0.12 0.00 0.00 0.01 0.00 0.00 0.00 0.00 0.00 0.00 0.00 0.00 0.00 0.00 0.00 0.00 0.00 0.00 0.00 0.00 0.00 0.01 0.00 0.01 0.00 0.00 0.00 0.00 0.00 0.00 0.02 0.01 0.03 0.05 0.15 0.07 0.05 0.02 0.02 0.00 0.00 0.00
0.00 0.05 0.15 0.23 0.61 0.60 0.42 0.12 0.01 0.00 0.00 0.00 0.00 0.00 0.00 0.00 0.00 0.00 0.00 0.00 0.00 0.00 0.00 0.00 0.00 0.00 0.00 0.00 0.03 0.04 0.00 0.00 0.00 0.00 0.00 0.00 0.00 0.01 0.05 0.01 0.01 0.03 0.01 0.00 0.00 0.00 0.00 0.00 0.00
0.00 0.07 0.11 0.17 0.28 0.55 0.66 0.15 0.07 0.01 0.00 0.00 0.00 0.00 0.00 0.00 0.00 0.00 0.00 0.00 0.00 0.00 0.00 0.00 0.00 0.00 0.00 0.00 0.00 0.01 0.00 0.00 0.01 0.03 0.00 0.00 0.00 0.01 0.03 0.00 0.00 0.00 0.00 0.00 0.00 0.00 0.00 0.00 0.00
0.05 0.08 0.04 0.02 0.12 0.27 0.61 0.28 0.09 0.05 0.01 0.00 0.00 0.00 0.00 0.00 0.00 0.00 0.00 0.00 0.00 0.00 0.00 0.00 0.00 0.00 0.00 0.00 0.00 0.00 0.00 0.00 0.00 0.04 0.02 0.01 0.00 0.00 0.01 0.00 0.00 0.00 0.00 0.00 0.00 0.00 0.00 0.00 0.00
0.04 0.03 0.02 0.00 0.02 0.02 0.16 0.48 0.10 0.02 0.01 0.00 0.00 0.00 0.00 0.00 0.00 0.00 0.00 0.00 0.00 0.00 0.00 0.00 0.00 0.00 0.00 0.00 0.00 0.00 0.00 0.00 0.00 0.02 0.01 0.00 0.02 0.02 0.02 0.02 0.00 0.01 0.00 0.00 0.01 0.01 0.00 0.00 0.00
0.02 0.01 0.02 0.01 0.00 0.01 0.11 0.35 0.37 0.05 0.02 0.00 0.00 0.00 0.00 0.00 0.00 0.00 0.00 0.00 0.00 0.00 0.00 0.00 0.00 0.00 0.00 0.00 0.00 0.00 0.00 0.00 0.00 0.02 0.00 0.00 0.01 0.02 0.00 0.00 0.00 0.00 0.00 0.00 0.01 0.03 0.01 0.00 0.00
0.00 0.00 0.00 0.00 0.00 0.01 0.09 0.23 0.29 0.23 0.02 0.00 0.00 0.00 0.00 0.00 0.00 0.00 0.00 0.00 0.00 0.00 0.00 0.00 0.00 0.00 0.00 0.00 0.01 0.00 0.00 0.00 0.00 0.00 0.00 0.00 0.00 0.00 0.01 0.00 0.00 0.00 0.00 0.00 0.00 0.01 0.05 0.01 0.00
0.00 0.00 0.01 0.00 0.00 0.02 0.07 0.17 0.21 0.19 0.03 0.00 0.00 0.00 0.00 0.00 0.00 0.00 0.00 0.00 0.00 0.00 0.00 0.00 0.00 0.00 0.00 0.00 0.00 0.00 0.00 0.00 0.04 0.04 0.00 0.00 0.00 0.00 0.00 0.00 0.00 0.00 0.00 0.00 0.00 0.00 0.01 0.02 0.01
0.00 0.00 0.02 0.02 0.00 0.00 0.01 0.03 0.11 0.02 0.00 0.00 0.00 0.01 0.01 0.00 0.00 0.00 0.00 0.00 0.00 0.00 0.00 0.00 0.00 0.00 0.00 0.00 0.00 0.00 0.01 0.00 0.01 0.00 0.01 0.00 0.00 0.00 0.00 0.00 0.00 0.00 0.00 0.00 0.00 0.00 0.00 0.00 0.03
0.00 0.00 0.00 0.01 0.02 0.03 0.05 0.04 0.04 0.00 0.00 0.00 0.00 0.00 0.01 0.00 0.00 0.00 0.00 0.00 0.00 0.00 0.00 0.00 0.00 0.00 0.00 0.00 0.00 0.00 0.01 0.00 0.00 0.00 0.01 0.00 0.00 0.00 0.00 0.00 0.00 0.00 0.00 0.00 0.00 0.00 0.00 0.00 0.01
0.00 0.00 0.00 0.00 0.00 0.01 0.04 0.05 0.03 0.00 0.00 0.00 0.00 0.00 0.00 0.00 0.00 0.00 0.00 0.00 0.00 0.00 0.01 0.00 0.00 0.00 0.00 0.00 0.00 0.00 0.00 0.00 0.00 0.00 0.02 0.01 0.00 0.00 0.00 0.00 0.00 0.00 0.00 0.00 0.00 0.00 0.00 0.00 0.00
0.00 0.00 0.00 0.00 0.00 0.00 0.01 0.13 0.08 0.00 0.00 0.00 0.00 0.00 0.00 0.01 0.00 0.00 0.00 0.00 0.00 0.20 0.08 0.08 0.02 0.00 0.00 0.00 0.00 0.00 0.00 0.00 0.00 0.00 0.00 0.00 0.00 0.00 0.00 0.00 0.00 0.00 0.00 0.00 0.01 0.01 0.00 0.00 0.00
0.00 0.00 0.00 0.00 0.00 0.00 0.00 0.04 0.01 0.00 0.00 0.00 0.00 0.00 0.00 0.00 0.01 0.01 0.00 0.03 0.01 0.38 0.22 0.16 0.09 0.02 0.00 0.00 0.00 0.00 0.00 0.00 0.00 0.00 0.00 0.00 0.00 0.00 0.00 0.00 0.00 0.00 0.00 0.00 0.00 0.00 0.00 0.00 0.00
0.00 0.00 0.00 0.00 0.00 0.00 0.00 0.00 0.00 0.00 0.00 0.00 0.00 0.00 0.00 0.00 0.01 0.00 0.00 0.01 0.01 0.09 0.10 0.10 0.12 0.17 0.21 0.25 0.31 0.18 0.11 0.09 0.06 0.02 0.01 0.00 0.00 0.00 0.00 0.00 0.00 0.00 0.00 0.01 0.00 0.01 0.01 0.01 0.01
MSLP
1011.27 1011.23 1011.29 1011.85 1012.55 1011.94 1011.20 1010.79 1009.95 1009.70 1009.71 1009.67 1010.23 1010.84 1011.94 1012.20 1013.35 1015.15 1015.11 1015.65 1016.04 1016.34 1016.43 1016.54 1016.66 1016.77 1016.92 1016.94 1017.02 1017.09 1017.21 1017.32 1017.31 1017.50 1017.40 1017.43 1017.42 1017.45 1017.40 1017.52 1017.51 1017.54 1017.51 1017.56 1017.66 1017.51 1017.63 1017.64 1017.56
1011.14 1011.11 1011.54 1011.64 1012.18 1012.03 1011.62 1010.83 1010.29 1010.14 1009.95 1010.02 1010.61 1011.05 1012.04 1013.55 1013.79 1014.96 1015.66 1015.86 1016.01 1016.28 1016.58 1016.78 1016.90 1016.99 1017.09 1017.20 1017.33 1017.56 1017.68 1017.69 1017.80 1017.81 1017.84 1017.79 1017.87 1017.78 1017.71 1017.97 1017.92 1017.92 1017.95 1017.92 1017.92 1017.82 1017.86 1018.02 1017.72
1011.12 1011.11 1011.48 1012.02 1012.35 1011.79 1011.45 1010.96 1010.29 1010.30 1010.12 1010.08 1011.09 1011.56 1012.64 1014.22 1014.68 1015.08 1015.20 1015.83 1016.32 1016.59 1016.78 1016.96 1017.09 1017.22 1017.31 1017.43 1017.53 1017.59 1017.69 1017.80 1017.86 1017.93 1018.09 1018.28 1018.18 1018.16 1018.16 1018.29 1018.34 1018.32 1018.22 1018.12 1018.17 1018.07 1018.05 1018.17 1018.00
1011.00 1011.38 1011.96 1011.98 1011.97 1011.10 1010.36 1010.39 1009.90 1010.18 1010.65 1010.74 1011.12 1012.04 1013.07 1013.58 1014.14 1014.70 1015.47 1015.94 1016.56 1016.78 1016.89 1016.93 1017.16 1017.27 1017.38 1017.54 1017.67 1017.79 1017.87 1017.91 1018.00 1018.19 1018.34 1018.34 1018.39 1018.42 1018.48 1018.57 1018.58 1018.50 1018.40 1018.49 1018.40 1018.36 1018.49 1018.33 1018.21
1011.20 1011.56 1012.22 1012.26 1011.85 1010.83 1010.08 1009.80 1009.82 1010.37 1011.03 1011.46 1011.40 1013.15 1013.83 1014.52 1014.58 1015.36 1015.88 1016.35 1016.62 1017.05 1017.01 1017.09 1017.21 1017.32 1017.51 1017.66 1017.83 1017.95 1018.07 1018.24 1018.37 1018.48 1018.53 1018.62 1018.53 1018.53 1018.50 1018.57 1018.64 1018.59 1018.55 1018.54 1018.59 1018.77 1018.75 1018.70 1018.38
1011.40 1011.82 1012.45 1012.09 1011.25 1010.45 1009.80 1009.47 1009.75 1010.48 1011.60 1012.10 1012.34 1013.21 1014.62 1015.07 1015.14 1015.77 1016.06 1016.35 1016.60 1017.07 1017.20 1017.26 1017.42 1017.52 1017.66 1017.80 1018.00 1018.19 1018.29 1018.49 1018.58 1018.66 1018.70 1018.75 1018.74 1018.63 1018.66 1018.74 1018.78 1018.74 1018.75 1018.78 1018.83 1018.95 1018.93 1018.98 1018.87
1011.43 1012.05 1012.45 1012.03 1011.11 1010.24 1009.73 1009.37 1010.00 1011.04 1011.51 1012.02 1012.29 1013.76 1015.08 1015.57 1015.21 1015.70 1016.11 1016.53 1016.72 1017.10 1017.39 1017.57 1017.64 1017.68 1017.82 1018.06 1018.24 1018.41 1018.54 1018.71 1018.75 1018.90 1018.93 1018.99 1018.97 1019.02 1019.08 1019.02 1019.11 1019.22 1019.21 1019.18 1019.13 1019.15 1019.22 1019.26 1019.37
1011.49 1012.32 1012.71 1012.01 1010.81 1010.16 1009.53 1009.47 1009.93 1010.37 1011.30 1011.85 1012.06 1013.61 1014.75 1015.26 1015.13 1015.74 1016.49 1016.88 1017.19 1017.38 1017.67 1017.81 1017.93 1018.05 1018.22 1018.28 1018.34 1018.56 1018.68 1018.85 1019.06 1019.15 1019.08 1018.99 1019.10 1019.19 1019.24 1019.37 1019.40 1019.40 1019.41 1019.43 1019.44 1019.42 1019.53 1019.63 1019.65
1011.99 1013.17 1013.41 1012.34 1011.24 1010.56 1009.66 1009.65 1010.10 1010.27 1011.09 1011.72 1011.76 1012.71 1013.75 1014.78 1015.32 1016.13 1016.80 1017.30 1017.61 1017.83 1017.98 1018.05 1018.23 1018.48 1018.59 1018.68 1018.70 1018.76 1018.94 1019.07 1019.04 1019.16 1019.18 1019.26 1019.39 1019.53 1019.63 1019.64 1019.60 1019.46 1019.41 1019.52 1019.60 1019.63 1019.64 1019.70 1019.71
1011.76 1013.24 1013.11 1012.28 1012.13 1011.64 1010.42 1010.38 1010.22 1010.77 1011.46 1011.91 1012.40 1013.38 1014.09 1014.64 1015.35 1015.93 1016.57 1017.20 1017.71 1017.87 1018.15 1018.29 1018.42 1018.71 1018.78 1018.74 1019.09 1019.09 1019.19 1019.25 1019.36 1019.51 1019.55 1019.59 1019.62 1019.61 1019.69 1019.77 1019.77 1019.73 1019.62 1019.77 1019.67 1019.69 1019.66 1019.70 1020.05
1011.85 1012.83 1012.88 1012.17 1012.33 1012.39 1011.61 1010.65 1010.16 1010.74 1011.31 1011.31 1012.05 1013.30 1014.03 1014.58 1015.44 1016.01 1016.63 1016.92 1017.20 1017.67 1018.04 1018.34 1018.37 1018.67 1018.76 1018.98 1019.24 1019.39 1019.44 1019.48 1019.60 1019.68 1019.59 1019.58 1019.68 1019.91 1020.10 1020.20 1020.29 1020.33 1020.15 1020.08 1020.07 1019.94 1019.79 1019.93 1020.08
1011.26 1012.05 1012.28 1012.22 1012.22 1012.38 1011.64 1010.52 1010.10 1010.27 1011.05 1011.02 1011.74 1012.52 1013.43 1014.33 1015.31 1015.91 1016.48 1016.89 1017.20 1017.63 1017.75 1018.11 1018.37 1018.68 1018.82 1019.12 1019.34 1019.35 1019.42 1019.68 1019.94 1019.89 1019.84 1019.88 1019.89 1020.28 1020.57 1020.73 1020.74 1020.78 1020.69 1020.44 1020.43 1020.38 1020.03 1019.72 1019.60
1010.33 1011.53 1012.15 1012.38 1012.91 1012.63 1012.17 1010.77 1009.71 1010.30 1010.74 1011.21 1011.74 1012.38 1012.94 1014.07 1014.95 1015.45 1015.91 1016.62 1017.13 1017.52 1017.68 1017.98 1018.30 1018.69 1018.94 1019.33 1019.34 1019.34 1019.69 1019.93 1019.74 1019.72 1019.67 1019.91 1020.11 1020.44 1020.61 1020.80 1021.00 1020.86 1021.01 1020.95 1020.91 1020.74 1020.47 1019.80 1019.50
1009.72 1010.80 1011.78 1012.35 1012.53 1012.50 1012.21 1010.98 1009.60 1009.86 1010.41 1011.08 1011.58 1012.10 1012.60 1013.98 1014.56 1015.51 1016.06 1016.64 1017.15 1017.47 1017.76 1017.78 1018.02 1018.30 1018.76 1019.05 1018.98 1019.32 1019.62 1019.65 1019.54 1019.79 1019.64 1019.77 1020.02 1020.41 1020.81 1020.84 1020.77 1020.60 1020.75 1020.84 1021.07 1020.97 1020.64 1020.03 1019.60
1009.32 1010.81 1012.15 1012.30 1012.79 1012.76 1012.96 1011.55 1010.15 1009.90 1010.20 1010.89 1011.44 1012.03 1012.38 1013.50 1014.23 1015.05 1015.65 1016.33 1016.90 1017.37 1017.57 1017.52 1017.81 1017.87 1018.32 1018.82 1019.10 1019.25 1019.52 1019.52 1019.70 1019.66 1019.66 1019.88 1020.25 1020.49 1020.74 1021.04 1021.23 1021.43 1020.81 1020.59 1020.66 1020.75 1020.43 1019.76 1019.62
1009.44 1010.62 1011.98 1012.65 1013.68 1013.81 1013.63 1011.83 1010.76 1010.09 1009.98 1010.79 1011.55 1012.01 1012.49 1013.37 1013.97 1014.77 1015.50 1016.18 1016.77 1017.15 1017.48 1017.46 1017.59 1017.98 1018.33 1018.64 1018.92 1019.13 1019.52 1019.28 1019.59 1019.70 1019.87 1019.98 1020.20 1020.71 1021.23 1021.36 1021.50 1020.79 1020.32 1021.05 1020.80 1020.96 1020.40 1019.90 1019.86
1010.21 1011.20 1012.10 1011.80 1014.82 1013.15 1013.19 1011.85 1011.01 1010.50 1010.76 1011.01 1011.40 1011.92 1012.61 1013.62 1014.23 1014.92 1015.61 1016.14 1016.53 1016.88 1017.34 1017.62 1017.78 1018.13 1018.73 1018.61 1018.81 1019.07 1019.38 1019.69 1019.72 1019.59 1019.31 1019.65 1020.07 1020.70 1020.92 1021.08 1021.34 1021.64 1021.24 1021.57 1020.77 1020.72 1020.12 1020.04 1019.91
1010.77 1011.51 1013.27 1014.26 1014.58 1014.45 1014.53 1013.27 1011.98 1011.52 1011.04 1011.24 1011.60 1012.05 1012.73 1013.38 1014.14 1014.94 1015.56 1016.08 1016.31 1016.72 1017.12 1017.56 1018.07 1018.51 1018.75 1018.91 1019.36 1019.63 1019.58 1019.52 1019.50 1019.56 1019.50 1019.67 1019.73 1020.04 1020.44 1020.76 1020.70 1021.07 1020.56 1021.00 1020.62 1020.45 1020.09 1019.68 1019.81
1011.14 1012.29 1013.67 1015.06 1015.09 1014.19 1014.93 1014.42 1013.40 1012.59 1012.19 1012.09 1012.11 1012.42 1012.75 1013.23 1013.74 1014.25 1015.15 1015.92 1016.40 1016.85 1017.20 1017.68 1018.31 1018.63 1018.78 1019.23 1019.76 1019.94 1019.97 1019.87 1019.85 1019.60 1019.47 1019.54 1019.62 1020.02 1020.22 1020.46 1020.88 1020.98 1021.01 1021.11 1020.90 1020.40 1019.89 1019.89 1020.16
1011.31 1012.80 1014.21 1014.97 1015.13 1014.95 1015.01 1015.19 1014.64 1013.93 1013.50 1013.01 1012.72 1012.50 1012.70 1013.44 1014.04 1014.63 1015.05 1015.79 1016.28 1016.77 1017.08 1017.60 1018.15 1018.52 1018.78 1019.07 1019.45 1019.62 1019.71 1019.83 1019.87 1020.00 1019.70 1019.51 1019.68 1019.85 1020.11 1020.36 1020.54 1020.62 1020.92 1021.09 1020.99 1020.37 1020.42 1020.51 1020.34
1011.38 1012.11 1013.87 1014.78 1015.71 1016.10 1015.87 1015.47 1015.00 1014.45 1014.30 1013.44 1013.30 1013.06 1012.90 1013.44 1013.95 1014.60 1014.95 1015.43 1015.95 1016.54 1017.00 1017.51 1017.93 1018.43 1018.80 1019.11 1019.46 1019.74 1019.88 1020.02 1020.13 1020.17 1020.13 1019.98 1019.85 1020.04 1020.05 1020.18 1020.25 1020.46 1020.82 1021.11 1021.05 1020.81 1020.96 1020.95 1020.56
1011.16 1012.07 1012.85 1014.27 1015.45 1015.73 1015.86 1015.53 1014.62 1014.56 1014.15 1013.55 1013.38 1013.32 1013.10 1013.21 1014.24 1014.18 1014.71 1015.23 1015.60 1016.18 1016.78 1017.30 1017.85 1018.46 1018.81 1019.01 1019.42 1019.83 1020.12 1020.37 1020.44 1020.29 1020.29 1020.17 1020.04 1020.23 1020.09 1020.10 1020.14 1020.38 1020.92 1021.14 1020.95 1020.69 1021.08 1021.11 1021.19
1011.41 1012.25 1012.50 1014.58 1015.62 1016.02 1015.95 1015.45 1014.32 1013.79 1013.77 1013.15 1012.79 1013.35 1013.28 1013.29 1013.77 1014.07 1014.48 1014.86 1015.47 1015.92 1016.55 1017.14 1017.69 1018.25 1018.63 1019.01 1019.21 1019.71 1020.23 1020.24 1020.31 1020.39 1020.48 1020.36 1020.13 1020.10 1019.94 1020.19 1020.29 1020.51 1020.72 1020.85 1020.90 1020.84 1021.04 1021.30 1021.36
1010.92 1012.13 1013.18 1014.24 1015.75 1015.86 1015.12 1014.10 1013.68 1013.31 1012.47 1012.22 1012.49 1013.05 1012.88 1013.27 1013.55 1014.13 1014.36 1014.76 1015.36 1015.99 1016.59 1016.97 1017.61 1017.99 1018.43 1018.91 1019.23 1019.59 1020.00 1020.23 1020.32 1020.36 1020.45 1020.30 1020.16 1020.25 1020.27 1019.96 1020.23 1020.32 1020.43 1020.82 1020.99 1020.82 1020.94 1021.32 1021.20
1011.00 1011.50 1013.71 1015.06 1015.52 1015.09 1014.78 1014.40 1012.56 1012.22 1012.25 1012.02 1012.09 1012.65 1012.94 1013.21 1013.51 1014.01 1014.32 1014.88 1015.38 1015.91 1016.47 1016.87 1017.41 1018.00 1018.26 1018.64 1019.06 1019.34 1019.55 1019.87 1020.09 1020.29 1020.31 1020.28 1020.21 1020.14 1020.09 1019.95 1020.26 1020.18 1020.22 1020.62 1020.70 1020.88 1021.03 1021.08 1021.17
1010.05 1010.31 1011.75 1013.32 1014.55 1014.40 1014.39 1013.64 1011.35 1011.08 1010.90 1010.70 1011.10 1011.92 1012.51 1012.95 1013.22 1013.81 1014.19 1014.64 1015.19 1015.65 1016.30 1016.77 1017.09 1017.76 1018.09 1018.32 1018.82 1019.04 1019.24 1019.43 1019.48 1019.81 1020.01 1019.96 1019.92 1019.96 1019.86 1019.92 1020.03 1020.14 1020.21 1020.30 1020.42 1020.81 1020.90 1020.94 1021.12
1009.66 1009.54 1009.80 1012.04 1013.37 1013.76 1013.86 1012.96 1010.62 1009.79 1009.87 1009.23 1010.18 1011.01 1012.00 1012.58 1012.99 1013.70 1014.04 1014.55 1015.10 1015.67 1016.20 1016.56 1016.78 1017.25 1017.82 1018.09 1018.34 1018.69 1019.03 1019.30 1019.31 1019.37 1019.78 1019.91 1019.74 1019.96 1019.82 1019.82 1019.86 1020.00 1020.07 1020.23 1020.34 1020.71 1020.67 1020.85 1021.18
1006.48 1007.46 1009.49 1011.11 1012.71 1013.35 1013.67 1012.99 1010.97 1009.44 1009.63 1009.62 1010.04 1010.56 1011.43 1012.29 1013.04 1013.66 1014.13 1014.42 1015.02 1015.69 1016.14 1016.67 1016.84 1016.93 1017.46 1017.87 1018.11 1018.44 1018.70 1019.02 1019.26 1019.34 1019.45 1019.62 1019.68 1019.73 1019.76 1019.88 1019.89 1019.90 1019.77 1019.96 1020.19 1020.54 1020.59 1020.74 1020.93
1006.37 1007.07 1008.56 1009.63 1010.60 1011.50 1012.45 1011.81 1008.60 1008.02 1008.11 1009.06 1009.65 1010.32 1010.76 1011.45 1012.78 1013.54 1014.22 1014.41 1014.72 1015.10 1015.54 1016.37 1017.28 1017.13 1017.22 1017.57 1018.03 1018.34 1018.57 1018.84 1019.23 1019.36 1019.53 1019.55 1019.64 1019.56 1019.72 1019.88 1019.78 1019.78 1020.00 1019.75 1020.21 1020.46 1020.59 1020.65 1020.74
1005.41 1006.51 1007.78 1009.46 1010.12 1010.15 1009.96 1008.95 1007.08 1006.85 1007.55 1008.15 1009.22 1010.09 1010.69 1010.76 1012.25 1013.63 1014.17 1014.34 1014.71 1015.00 1015.33 1015.71 1017.03 1017.35 1017.35 1017.70 1018.01 1018.47 1018.42 1018.65 1018.88 1019.21 1019.33 1019.67 1019.76 1019.80 1019.83 1019.88 1019.98 1019.88 1019.77 1019.87 1020.16 1020.33 1020.45 1020.58 1020.76
Thickness
5806 5803 5801 5789 5763 5758 5757 5763 5782 5774 5776 5791 5789 5776 5763 5767 5748 5720 5755 5751 5747 5743 5742 5742 5741 5741 5740 5741 5740 5740 5740 5740 5739 5738 5740 5742 5745 5746 5747 5746 5748 5748 5749 5750 5750 5754 5753 5754 5757
5807 5804 5792 5779 5749 5744 5744 5770 5765 5774 5783 5788 5782 5775 5762 5743 5759 5748 5747 5752 5748 5745 5744 5743 5742 5741 5741 5741 5740 5739 5738 5737 5737 5738 5739 5741 5741 5743 5744 5742 5745 5746 5746 5748 5749 5752 5753 5752 5757
5808 5804 5779 5763 5746 5744 5739 5765 5771 5781 5789 5786 5771 5778 5765 5743 5753 5753 5761 5756 5748 5745 5744 5743 5741 5741 5740 5740 5740 5740 5740 5739 5739 5738 5737 5735 5737 5738 5738 5739 5740 5741 5744 5747 5748 5752 5753 5753 5757
5802 5793 5778 5752 5748 5768 5772 5772 5783 5783 5786 5789 5782 5764 5772 5774 5764 5766 5762 5755 5748 5745 5744 5743 5741 5741 5741 5740 5740 5740 5740 5740 5739 5736 5735 5735 5736 5737 5738 5738 5739 5742 5745 5745 5748 5751 5751 5755 5758
5800 5784 5753 5748 5752 5775 5785 5788 5789 5779 5777 5777 5783 5758 5758 5766 5768 5763 5760 5753 5749 5746 5746 5744 5742 5742 5741 5741 5740 5740 5739 5737 5736 5735 5735 5734 5736 5738 5739 5741 5742 5744 5746 5748 5749 5749 5752 5753 5759
5780 5777 5747 5748 5761 5778 5788 5796 5792 5782 5775 5775 5772 5765 5756 5768 5765 5763 5760 5756 5753 5749 5747 5746 5743 5743 5743 5742 5740 5738 5737 5736 5736 5735 5734 5734 5736 5738 5738 5740 5741 5743 5746 5749 5750 5750 5752 5754 5756
5774 5763 5747 5759 5766 5771 5783 5800 5788 5778 5774 5772 5783 5752 5755 5759 5766 5765 5760 5758 5756 5751 5748 5746 5744 5745 5744 5742 5741 5739 5739 5737 5736 5735 5735 5735 5736 5736 5736 5738 5740 5741 5744 5746 5748 5750 5752 5754 5755
5778 5768 5755 5762 5769 5765 5791 5796 5798 5788 5775 5791 5790 5754 5747 5763 5771 5766 5760 5757 5756 5752 5748 5747 5746 5745 5744 5743 5744 5742 5740 5737 5736 5735 5737 5738 5738 5737 5738 5738 5739 5742 5744 5745 5747 5748 5749 5751 5753
5784 5746 5737 5757 5771 5771 5794 5788 5799 5804 5785 5786 5792 5781 5778 5775 5771 5763 5758 5754 5752 5751 5750 5747 5747 5745 5744 5743 5743 5741 5739 5738 5739 5738 5739 5740 5740 5740 5739 5739 5740 5742 5745 5747 5748 5749 5751 5752 5754
5773 5744 5746 5767 5767 5765 5781 5782 5789 5783 5779 5777 5782 5781 5780 5779 5771 5764 5759 5754 5750 5750 5749 5748 5748 5745 5745 5743 5741 5740 5739 5741 5739 5738 5740 5740 5742 5741 5741 5741 5742 5743 5748 5748 5750 5751 5754 5756 5756
5769 5747 5755 5761 5769 5770 5771 5779 5797 5782 5773 5784 5779 5775 5777 5777 5772 5767 5763 5762 5756 5755 5753 5753 5751 5748 5748 5745 5743 5742 5742 5742 5742 5741 5742 5740 5743 5740 5740 5743 5743 5744 5748 5752 5753 5756 5759 5760 5760
5764 5769 5766 5769 5777 5772 5772 5793 5787 5785 5782 5795 5793 5792 5785 5777 5772 5767 5766 5763 5760 5758 5758 5758 5754 5751 5751 5748 5746 5746 5747 5745 5743 5742 5741 5741 5743 5740 5740 5741 5741 5741 5745 5750 5754 5755 5759 5764 5767
5773 5770 5771 5767 5766 5769 5772 5780 5791 5788 5795 5797 5794 5792 5787 5783 5777 5776 5773 5769 5765 5760 5762 5760 5757 5754 5753 5750 5749 5750 5749 5748 5749 5747 5746 5744 5743 5742 5739 5741 5740 5741 5743 5746 5750 5754 5757 5766 5769
5788 5785 5772 5764 5765 5768 5765 5779 5792 5795 5798 5792 5792 5790 5791 5784 5781 5774 5772 5768 5767 5766 5763 5765 5763 5760 5757 5756 5756 5753 5752 5754 5754 5751 5752 5751 5750 5747 5742 5744 5746 5747 5750 5750 5748 5752 5757 5766 5771
5792 5766 5759 5759 5755 5747 5764 5766 5776 5796 5798 5789 5788 5788 5794 5787 5784 5777 5777 5773 5772 5770 5769 5768 5767 5766 5763 5759 5759 5758 5757 5757 5758 5757 5757 5755 5754 5751 5747 5747 5744 5744 5751 5755 5756 5756 5761 5769 5772
5775 5769 5751 5757 5756 5753 5752 5749 5781 5798 5795 5785 5784 5785 5788 5787 5787 5784 5780 5777 5775 5773 5770 5773 5774 5770 5767 5762 5762 5762 5759 5761 5761 5761 5760 5760 5758 5752 5747 5745 5745 5758 5763 5755 5759 5758 5767 5772 5774
5765 5740 5751 5746 5737 5738 5746 5749 5780 5792 5787 5783 5783 5782 5782 5780 5783 5782 5780 5778 5776 5776 5774 5774 5774 5772 5767 5766 5766 5764 5760 5759 5762 5765 5768 5767 5763 5756 5751 5751 5752 5754 5759 5754 5761 5765 5773 5774 5777
5740 5749 5734 5729 5726 5737 5729 5743 5767 5781 5786 5783 5781 5783 5781 5780 5779 5781 5779 5779 5779 5780 5779 5777 5773 5770 5770 5768 5765 5763 5764 5765 5766 5766 5769 5768 5768 5765 5761 5757 5762 5761 5765 5759 5765 5772 5778 5781 5780
5747 5734 5725 5722 5729 5736 5720 5730 5746 5762 5777 5774 5776 5778 5781 5781 5787 5789 5785 5782 5779 5778 5778 5776 5772 5771 5771 5767 5763 5763 5763 5766 5767 5768 5769 5770 5771 5769 5768 5765 5762 5761 5762 5763 5770 5776 5781 5781 5779
5738 5723 5715 5717 5724 5727 5723 5722 5739 5750 5755 5763 5769 5780 5783 5778 5781 5783 5785 5783 5782 5779 5779 5776 5774 5773 5773 5771 5767 5766 5768 5770 5768 5767 5769 5773 5772 5771 5770 5769 5769 5769 5768 5767 5770 5778 5778 5778 5780
5733 5732 5713 5715 5713 5714 5714 5714 5728 5745 5748 5763 5766 5773 5778 5779 5779 5780 5782 5784 5783 5781 5780 5777 5775 5774 5773 5771 5768 5767 5766 5767 5768 5768 5770 5772 5774 5771 5772 5773 5774 5774 5772 5769 5771 5775 5774 5770 5777
5715 5738 5734 5718 5708 5700 5713 5706 5724 5735 5743 5753 5761 5767 5770 5778 5778 5783 5783 5782 5783 5783 5782 5780 5776 5773 5773 5773 5769 5767 5762 5760 5764 5767 5770 5770 5773 5772 5772 5774 5774 5774 5772 5770 5771 5775 5775 5773 5768
5717 5737 5735 5715 5700 5698 5701 5704 5721 5729 5734 5750 5761 5760 5767 5775 5781 5781 5784 5785 5785 5785 5783 5782 5778 5773 5772 5772 5772 5768 5762 5765 5767 5769 5769 5771 5773 5772 5775 5775 5774 5775 5774 5772 5772 5774 5773 5772 5770
5740 5727 5721 5713 5695 5682 5703 5714 5710 5717 5741 5757 5764 5759 5765 5770 5776 5779 5784 5785 5784 5784 5782 5782 5778 5775 5773 5771 5771 5768 5765 5765 5767 5770 5770 5772 5775 5774 5773 5774 5775 5775 5776 5773 5771 5773 5774 5771 5773
5725 5714 5685 5683 5681 5683 5700 5700 5715 5733 5742 5751 5758 5755 5761 5765 5769 5773 5778 5779 5780 5780 5780 5781 5778 5772 5773 5771 5771 5772 5770 5769 5768 5768 5770 5771 5773 5774 5776 5774 5774 5776 5778 5776 5773 5772 5772 5772 5771
5722 5727 5701 5684 5673 5693 5702 5698 5727 5751 5757 5768 5768 5761 5759 5760 5768 5771 5777 5778 5779 5779 5780 5780 5779 5774 5774 5773 5770 5772 5774 5773 5774 5773 5771 5773 5776 5775 5777 5777 5776 5774 5773 5774 5773 5771 5771 5772 5770
5719 5724 5741 5704 5701 5694 5696 5715 5745 5762 5760 5769 5763 5765 5757 5759 5765 5767 5772 5776 5777 5778 5778 5780 5779 5777 5774 5774 5773 5773 5774 5774 5776 5777 5774 5774 5775 5773 5775 5776 5777 5776 5775 5774 5773 5771 5771 5771 5769
5752 5760 5714 5704 5682 5681 5686 5695 5713 5746 5751 5760 5758 5759 5759 5758 5760 5765 5768 5775 5776 5775 5775 5775 5776 5776 5774 5773 5774 5774 5774 5773 5775 5775 5774 5773 5773 5773 5773 5775 5775 5775 5777 5776 5773 5770 5771 5771 5770
5740 5734 5729 5724 5717 5694 5682 5701 5754 5765 5773 5766 5762 5759 5756 5762 5762 5760 5762 5772 5776 5778 5778 5773 5766 5772 5772 5771 5771 5772 5772 5771 5771 5770 5770 5771 5770 5772 5772 5772 5774 5776 5775 5777 5773 5769 5769 5769 5767
5759 5746 5733 5704 5719 5720 5720 5725 5788 5788 5785 5776 5770 5763 5763 5772 5765 5759 5763 5769 5771 5774 5775 5774 5765 5764 5769 5767 5767 5766 5769 5770 5769 5767 5768 5766 5766 5766 5768 5770 5770 5772 5775 5775 5771 5769 5767 5765 5764